Location: Aixovall
(42.4760°N, 1.4902°E)
Time: 07:12:15
(UTC+00:00)

Cosmos 2266 Rocket - Pass Details

Date: 22 November 2025
Orbit: 933 x 1006 km, 82.9° (Epoch: 08 December)

Event Time Altitude Azimuth Distance (km) Brightness Sun altitude
Rises 18:54:49 0° 357° (N) 3,715 7.0 -27.1°
Reaches altitude 10° 18:57:30 10° 3° (N) 2,752 6.3 -27.6°
Enters shadow 18:58:54 17° 9° (N) 2,268 5.8 -27.8°
